,,,PA_Meas_PMT16A,,PR_Meas_QMR101_102,,RH_Meas_QMH101,,SR_Meas_QMS101,,TA_Meas_QMH101,,GenWind,,GenWind,
date,time,status,PA,status,PR,status,RH,status,SR,status,TA,status,DirAvg,status,SpdAvg,
2010-12-09, 00:00:04,VALID,1003.16,VALID,0,INVALID,163.678,VALID,0,VALID,24.2681,VALID,337,VALID,0.284766,
2010-12-09, 00:01:04,VALID,1003.18,VALID,0,INVALID,163.693,VALID,0,VALID,24.2078,VALID,337,VALID,0.112109,
2010-12-09, 00:02:04,VALID,1003.15,VALID,0,INVALID,163.685,VALID,0,VALID,24.2273,VALID,337,VALID,0.167969,
2010-12-09, 00:03:04,VALID,1003.16,VALID,0,INVALID,163.685,VALID,0,VALID,24.2273,VALID,337,VALID,0,
2010-12-09, 00:04:04,VALID,1003.14,VALID,0,INVALID,163.693,VALID,0,VALID,24.2273,VALID,337,VALID,0,
2010-12-09, 00:05:04,VALID,1003.15,VALID,0,INVALID,163.678,VALID,0,VALID,24.2097,VALID,337,VALID,0,
2010-12-09, 00:06:04,VALID,1003.12,VALID,0,INVALID,163.678,VALID,0,VALID,24.2291,VALID,330,VALID,0.36875,
2010-12-09, 00:07:04,VALID,1003.11,VALID,0,INVALID,163.685,VALID,0,VALID,24.2078,VALID,330,VALID,0,
2010-12-09, 00:08:04,VALID,1003.12,VALID,0,INVALID,163.662,VALID,0,VALID,24.2486,VALID,331,VALID,0.276563,
2010-12-09, 00:09:04,VALID,1003.09,VALID,0,INVALID,163.67,VALID,0,VALID,24.2486,VALID,349,VALID,0.400391,
2010-12-09, 00:10:04,VALID,1003.07,VALID,0,INVALID,163.693,VALID,0,VALID,24.2681,VALID,344,VALID,0.381641,
2010-12-09, 00:11:04,VALID,1003.06,VALID,0,INVALID,163.678,VALID,0,VALID,24.2273,VALID,345,VALID,0.533203,
2010-12-09, 00:12:04,VALID,1003.06,VALID,0,INVALID,163.685,VALID,0,VALID,24.2078,VALID,345,VALID,0.500781,
2010-12-09, 00:13:04,VALID,1003.03,VALID,0,INVALID,163.685,VALID,0,VALID,24.2097,VALID,345,VALID,0.519531,
2010-12-09, 00:14:04,VALID,1003.01,VALID,0,INVALID,163.701,VALID,0,VALID,24.1689,VALID,338,VALID,0.715234,
2010-12-09, 00:15:04,VALID,1003,VALID,0,INVALID,163.678,VALID,0,VALID,24.1494,VALID,344,VALID,0.328516,
2010-12-09, 00:16:04,VALID,1002.97,VALID,0,INVALID,163.716,VALID,0,VALID,24.2097,VALID,345,VALID,0.554688,
2010-12-09, 00:17:04,VALID,1002.98,VALID,0,INVALID,163.693,VALID,0,VALID,24.1902,VALID,349,VALID,0.525391,
2010-12-09, 00:18:04,VALID,1002.95,VALID,0,INVALID,163.701,VALID,0,VALID,24.1707,VALID,349,VALID,0.587109,
2010-12-09, 00:19:04,VALID,1002.97,VALID,0,INVALID,163.716,VALID,0,VALID,24.1902,VALID,349,VALID,0.585938,
2010-12-09, 00:20:04,VALID,1002.99,VALID,0,INVALID,163.693,VALID,0,VALID,24.1494,VALID,349,VALID,0.337109,
2010-12-09, 00:21:04,VALID,1002.98,VALID,0,INVALID,163.693,VALID,0,VALID,24.1513,VALID,349,VALID,0.373047,
2010-12-09, 00:22:04,VALID,1002.96,VALID,0,INVALID,163.701,VALID,0,VALID,24.1513,VALID,349,VALID,0.549219,
2010-12-09, 00:23:04,VALID,1002.96,VALID,0,INVALID,163.678,VALID,0.100563,VALID,24.1494,VALID,354,VALID,0.610547,
2010-12-09, 00:24:04,VALID,1002.92,VALID,0,INVALID,163.678,VALID,0,VALID,24.1902,VALID,354,VALID,0.448828,
2010-12-09, 00:25:04,VALID,1002.94,VALID,0,INVALID,163.693,VALID,0,VALID,24.2078,VALID,353,VALID,0.302734,
2010-12-09, 00:26:04,VALID,1002.93,VALID,0,INVALID,163.685,VALID,0,VALID,24.2078,VALID,353,VALID,0.11875,
2010-12-09, 00:27:04,VALID,1002.9,VALID,0,INVALID,163.685,VALID,0,VALID,24.2291,VALID,353,VALID,0.601563,
2010-12-09, 00:28:04,VALID,1002.91,VALID,0,INVALID,163.67,VALID,0,VALID,24.2486,VALID,352,VALID,0.451172,
2010-12-09, 00:29:04,VALID,1002.87,VALID,0,INVALID,163.693,VALID,0,VALID,24.2486,VALID,351,VALID,0.468359,
2010-12-09, 00:30:04,VALID,1002.85,VALID,0,INVALID,163.67,VALID,0,VALID,24.2097,VALID,349,VALID,0.336328,
2010-12-09, 00:31:04,VALID,1002.82,VALID,0,INVALID,163.708,VALID,0.100563,VALID,24.2273,VALID,349,VALID,0,
2010-12-09, 00:32:04,VALID,1002.81,VALID,0,INVALID,163.685,VALID,0,VALID,24.2486,VALID,333,VALID,0.623828,
2010-12-09, 00:33:04,VALID,1002.8,VALID,0,INVALID,163.647,VALID,0,VALID,24.2273,VALID,353,VALID,0.842188,
2010-12-09, 00:34:04,VALID,1002.82,VALID,0,INVALID,163.678,VALID,0,VALID,24.2662,VALID,358,VALID,0.686328,
2010-12-09, 00:35:04,VALID,1002.81,VALID,0,INVALID,163.678,VALID,0,VALID,24.307,VALID,355,VALID,0.786328,
2010-12-09, 00:36:04,VALID,1002.8,VALID,0,INVALID,163.647,VALID,0,VALID,24.3246,VALID,352,VALID,0.542188,
2010-12-09, 00:37:04,VALID,1002.77,VALID,0,INVALID,163.67,VALID,0,VALID,24.3246,VALID,2,VALID,0.651953,
2010-12-09, 00:38:04,VALID,1002.76,VALID,0,INVALID,163.639,VALID,0,VALID,24.3441,VALID,3,VALID,0.555859,
2010-12-09, 00:39:04,VALID,1002.74,VALID,0,INVALID,163.662,VALID,0,VALID,24.3849,VALID,356,VALID,0.129297,
2010-12-09, 00:40:04,VALID,1002.72,VALID,0,INVALID,163.67,VALID,0,VALID,24.3849,VALID,356,VALID,0.18125,
2010-12-09, 00:41:04,VALID,1002.69,VALID,0,INVALID,163.662,VALID,0,VALID,24.4043,VALID,356,VALID,0.424219,
2010-12-09, 00:42:04,VALID,1002.68,VALID,0,INVALID,163.655,VALID,0,VALID,24.4043,VALID,356,VALID,0.0898438,
2010-12-09, 00:43:04,VALID,1002.66,VALID,0,INVALID,163.67,VALID,0,VALID,24.4238,VALID,356,VALID,0.133203,
2010-12-09, 00:44:04,VALID,1002.64,VALID,0,INVALID,163.67,VALID,0,VALID,24.4025,VALID,356,VALID,0.103125,
2010-12-09, 00:45:04,VALID,1002.63,VALID,0,INVALID,163.685,VALID,0,VALID,24.383,VALID,356,VALID,0,
2010-12-09, 00:46:04,VALID,1002.61,VALID,0,INVALID,163.662,VALID,0,VALID,24.4025,VALID,356,VALID,0,
2010-12-09, 00:47:04,VALID,1002.62,VALID,0,INVALID,163.678,VALID,0,VALID,24.4043,VALID,356,VALID,0,
2010-12-09, 00:48:04,VALID,1002.58,VALID,0,INVALID,163.67,VALID,0,VALID,24.4043,VALID,356,VALID,0.275781,
2010-12-09, 00:49:04,VALID,1002.61,VALID,0,INVALID,163.701,VALID,0,VALID,24.4043,VALID,356,VALID,0.251172,
2010-12-09, 00:50:04,VALID,1002.61,VALID,0,INVALID,163.67,VALID,0,VALID,24.4238,VALID,356,VALID,0,
2010-12-09, 00:51:04,VALID,1002.61,VALID,0,INVALID,163.662,VALID,0,VALID,24.3812,VALID,356,VALID,0.0164062,
2010-12-09, 00:52:04,VALID,1002.61,VALID,0,INVALID,163.685,VALID,0,VALID,24.4238,VALID,356,VALID,0.164453,
2010-12-09, 00:53:04,VALID,1002.64,VALID,0,INVALID,163.639,VALID,0,VALID,24.383,VALID,304,VALID,0.284375,
2010-12-09, 00:54:04,VALID,1002.6,VALID,0,INVALID,163.662,VALID,0,VALID,24.383,VALID,306,VALID,0.0464844,
2010-12-09, 00:55:04,VALID,1002.63,VALID,0,INVALID,163.678,VALID,0,VALID,24.3849,VALID,306,VALID,0.109766,
2010-12-09, 00:56:04,VALID,1002.62,VALID,0,INVALID,163.662,VALID,0,VALID,24.3849,VALID,306,VALID,0,
2010-12-09, 00:57:04,VALID,1002.61,VALID,0,INVALID,163.693,VALID,0,VALID,24.3849,VALID,306,VALID,0,
2010-12-09, 00:58:04,VALID,1002.59,VALID,0,INVALID,163.678,VALID,0,VALID,24.3636,VALID,306,VALID,0.0949219,
2010-12-09, 00:59:04,VALID,1002.58,VALID,0,INVALID,163.662,VALID,0,VALID,24.3654,VALID,306,VALID,0.00195313,
2010-12-09, 01:00:04,VALID,1002.56,VALID,0,INVALID,163.67,VALID,0,VALID,24.3654,VALID,343,VALID,0.435547,
2010-12-09, 01:01:04,VALID,1002.53,VALID,0,INVALID,163.67,VALID,0,VALID,24.3849,VALID,352,VALID,0.596875,
2010-12-09, 01:02:04,VALID,1002.52,VALID,0,INVALID,163.67,VALID,0,VALID,24.3849,VALID,351,VALID,0.726563,
2010-12-09, 01:03:04,VALID,1002.52,VALID,0,INVALID,163.67,VALID,0,VALID,24.3849,VALID,356,VALID,0.845312,
2010-12-09, 01:04:04,VALID,1002.53,VALID,0,INVALID,163.693,VALID,0,VALID,24.3441,VALID,354,VALID,0.526563,
2010-12-09, 01:05:04,VALID,1002.55,VALID,0,INVALID,163.67,VALID,0,VALID,24.3459,VALID,355,VALID,0.654297,
2010-12-09, 01:06:04,VALID,1002.53,VALID,0,INVALID,163.678,VALID,0,VALID,24.307,VALID,355,VALID,0.616406,
2010-12-09, 01:07:04,VALID,1002.51,VALID,0,INVALID,163.67,VALID,0,VALID,24.2875,VALID,357,VALID,0.467969,
2010-12-09, 01:08:04,VALID,1002.52,VALID,0,INVALID,163.685,VALID,0.100563,VALID,24.2486,VALID,335,VALID,0.393359,
2010-12-09, 01:09:04,VALID,1002.49,VALID,0,INVALID,163.701,VALID,0,VALID,24.2699,VALID,335,VALID,0.259375,
2010-12-09, 01:10:04,VALID,1002.48,VALID,0,INVALID,163.693,VALID,0,VALID,24.2291,VALID,335,VALID,0.175,
2010-12-09, 01:11:04,VALID,1002.48,VALID,0,INVALID,163.701,VALID,0,VALID,24.1494,VALID,325,VALID,0.302344,
2010-12-09, 01:12:04,VALID,1002.44,VALID,0,INVALID,163.708,VALID,0,VALID,24.1494,VALID,288,VALID,0.190625,
2010-12-09, 01:13:04,VALID,1002.4,VALID,0,INVALID,163.685,VALID,0,VALID,24.1707,VALID,303,VALID,0,
2010-12-09, 01:14:04,VALID,1002.39,VALID,0,INVALID,163.685,VALID,0,VALID,24.1494,VALID,303,VALID,0.0886719,
2010-12-09, 01:15:04,VALID,1002.4,VALID,0,INVALID,163.678,VALID,0,VALID,24.1494,VALID,303,VALID,0,
2010-12-09, 01:16:04,VALID,1002.41,VALID,0,INVALID,163.685,VALID,0,VALID,24.1707,VALID,303,VALID,0.110547,
2010-12-09, 01:17:04,VALID,1002.42,VALID,0,INVALID,163.678,VALID,0,VALID,24.1707,VALID,346,VALID,0.514063,
2010-12-09, 01:18:04,VALID,1002.42,VALID,0,INVALID,163.678,VALID,0,VALID,24.1902,VALID,343,VALID,0.644531,
2010-12-09, 01:19:04,VALID,1002.4,VALID,0,INVALID,163.678,VALID,0,VALID,24.1902,VALID,343,VALID,0.172266,
2010-12-09, 01:20:04,VALID,1002.4,VALID,0,INVALID,163.655,VALID,0,VALID,24.2097,VALID,303,VALID,0.672266,
2010-12-09, 01:21:04,VALID,1002.39,VALID,0,INVALID,163.678,VALID,0,VALID,24.2097,VALID,278,VALID,0.212891,
2010-12-09, 01:22:04,VALID,1002.37,VALID,0,INVALID,163.67,VALID,0,VALID,24.2078,VALID,301,VALID,0.367578,
2010-12-09, 01:23:04,VALID,1002.39,VALID,0,INVALID,163.693,VALID,0,VALID,24.2078,VALID,349,VALID,0.396484,
2010-12-09, 01:24:04,VALID,1002.35,VALID,0,INVALID,163.685,VALID,0,VALID,24.2273,VALID,360,VALID,0.691016,
2010-12-09, 01:25:04,VALID,1002.32,VALID,0,INVALID,163.693,VALID,0,VALID,24.2468,VALID,349,VALID,0.6875,
2010-12-09, 01:26:04,VALID,1002.29,VALID,0,INVALID,163.67,VALID,0,VALID,24.2662,VALID,339,VALID,0.676172,
2010-12-09, 01:27:04,VALID,1002.3,VALID,0,INVALID,163.678,VALID,0.100563,VALID,24.2644,VALID,358,VALID,0,
2010-12-09, 01:28:04,VALID,1002.26,VALID,0,INVALID,163.685,VALID,0,VALID,24.3459,VALID,358,VALID,0.210547,
2010-12-09, 01:29:04,VALID,1002.29,VALID,0,INVALID,163.701,VALID,0,VALID,24.3052,VALID,358,VALID,0.0832031,
2010-12-09, 01:30:04,VALID,1002.31,VALID,0,INVALID,163.685,VALID,0,VALID,24.3265,VALID,357,VALID,0.184375,
2010-12-09, 01:31:04,VALID,1002.31,VALID,0,INVALID,163.693,VALID,0,VALID,24.3052,VALID,354,VALID,0.100781,
2010-12-09, 01:32:04,VALID,1002.31,VALID,0,INVALID,163.67,VALID,0,VALID,24.2857,VALID,354,VALID,0.45,
2010-12-09, 01:33:04,VALID,1002.26,VALID,0,INVALID,163.708,VALID,0,VALID,24.2875,VALID,348,VALID,0.326953,
2010-12-09, 01:34:04,VALID,1002.33,VALID,0,INVALID,163.685,VALID,0,VALID,24.2662,VALID,349,VALID,0.338672,
2010-12-09, 01:35:04,VALID,1002.3,VALID,0,INVALID,163.678,VALID,0,VALID,24.3052,VALID,349,VALID,0.207031,
2010-12-09, 01:36:04,VALID,1002.27,VALID,0,INVALID,163.685,VALID,0,VALID,24.3265,VALID,358,VALID,0.730078,
2010-12-09, 01:37:04,VALID,1002.29,VALID,0,INVALID,163.678,VALID,0,VALID,24.3052,VALID,2,VALID,0.700391,
2010-12-09, 01:38:04,VALID,1002.3,VALID,0,INVALID,163.685,VALID,0,VALID,24.3052,VALID,358,VALID,0.826953,
2010-12-09, 01:39:04,VALID,1002.31,VALID,0,INVALID,163.685,VALID,0,VALID,24.3246,VALID,355,VALID,0.714844,
2010-12-09, 01:40:04,VALID,1002.27,VALID,0,INVALID,163.693,VALID,0,VALID,24.3441,VALID,351,VALID,0.717969,
2010-12-09, 01:41:04,VALID,1002.28,VALID,0,INVALID,163.685,VALID,0,VALID,24.4043,VALID,3,VALID,0.698438,
2010-12-09, 01:42:04,VALID,1002.24,VALID,0,INVALID,163.693,VALID,0,VALID,24.383,VALID,346,VALID,0.718359,
2010-12-09, 01:43:04,VALID,1002.25,VALID,0,INVALID,163.693,VALID,0,VALID,24.422,VALID,359,VALID,0.496875,
2010-12-09, 01:44:04,VALID,1002.25,VALID,0,INVALID,163.67,VALID,0,VALID,24.4414,VALID,359,VALID,0.0289063,
2010-12-09, 01:45:04,VALID,1002.24,VALID,0,INVALID,163.662,VALID,0,VALID,24.4433,VALID,359,VALID,0,
2010-12-09, 01:46:04,VALID,1002.27,VALID,0,INVALID,163.685,VALID,0,VALID,24.4414,VALID,359,VALID,0.462891,
2010-12-09, 01:47:04,VALID,1002.25,VALID,0,INVALID,163.647,VALID,0,VALID,24.4609,VALID,358,VALID,0.809766,
2010-12-09, 01:48:04,VALID,1002.25,VALID,0,INVALID,163.662,VALID,0.100563,VALID,24.5017,VALID,358,VALID,0.376563,
2010-12-09, 01:49:04,VALID,1002.25,VALID,0,INVALID,163.67,VALID,0,VALID,24.4804,VALID,353,VALID,0.607813,
2010-12-09, 01:50:04,VALID,1002.22,VALID,0,INVALID,163.678,VALID,0,VALID,24.4609,VALID,353,VALID,0.376172,
2010-12-09, 01:51:04,VALID,1002.22,VALID,0,INVALID,163.662,VALID,0.100563,VALID,24.4414,VALID,351,VALID,0.636328,
2010-12-09, 01:52:04,VALID,1002.21,VALID,0,INVALID,163.67,VALID,0,VALID,24.4433,VALID,355,VALID,1.1375,
2010-12-09, 01:53:04,VALID,1002.22,VALID,0,INVALID,163.632,VALID,0,VALID,24.4822,VALID,354,VALID,0.773828,
2010-12-09, 01:54:04,VALID,1002.16,VALID,0,INVALID,163.632,VALID,0.100563,VALID,24.4804,VALID,347,VALID,0.647266,
2010-12-09, 01:55:04,VALID,1002.19,VALID,0,INVALID,163.67,VALID,0,VALID,24.5388,VALID,350,VALID,0.642187,
2010-12-09, 01:56:04,VALID,1002.15,VALID,0,INVALID,163.655,VALID,0,VALID,24.5777,VALID,6,VALID,0.599609,
2010-12-09, 01:57:04,VALID,1002.16,VALID,0,INVALID,163.693,VALID,0,VALID,24.5796,VALID,323,VALID,0.386719,
2010-12-09, 01:58:04,VALID,1002.16,VALID,0,INVALID,163.647,VALID,0,VALID,24.5582,VALID,349,VALID,0.657031,
2010-12-09, 01:59:04,VALID,1002.13,VALID,0,INVALID,163.685,VALID,0,VALID,24.4998,VALID,356,VALID,0.462891,
2010-12-09, 02:00:04,VALID,1002.12,VALID,0,INVALID,163.662,VALID,0,VALID,24.4609,VALID,355,VALID,0.669531,
2010-12-09, 02:01:04,VALID,1002.09,VALID,0,INVALID,163.67,VALID,0,VALID,24.422,VALID,355,VALID,0.578125,
2010-12-09, 02:02:04,VALID,1002.07,VALID,0,INVALID,163.685,VALID,0,VALID,24.4043,VALID,353,VALID,0.517578,
2010-12-09, 02:03:04,VALID,1002.05,VALID,0,INVALID,163.678,VALID,0,VALID,24.3636,VALID,353,VALID,0.557422,
2010-12-09, 02:04:04,VALID,1002.04,VALID,0,INVALID,163.67,VALID,0,VALID,24.3441,VALID,353,VALID,0.5125,
2010-12-09, 02:05:04,VALID,1002.04,VALID,0,INVALID,163.685,VALID,0,VALID,24.3052,VALID,340,VALID,0.522266,
2010-12-09, 02:06:04,VALID,1002.02,VALID,0,INVALID,163.701,VALID,0,VALID,24.307,VALID,344,VALID,0.553125,
2010-12-09, 02:07:04,VALID,1002.02,VALID,0,INVALID,163.67,VALID,0,VALID,24.2875,VALID,343,VALID,0.407031,
2010-12-09, 02:08:04,VALID,1002.03,VALID,0,INVALID,163.67,VALID,0,VALID,24.2875,VALID,343,VALID,0.00625,
2010-12-09, 02:09:04,VALID,1002.01,VALID,0,INVALID,163.662,VALID,0,VALID,24.2875,VALID,348,VALID,0.438281,
2010-12-09, 02:10:04,VALID,1002,VALID,0,INVALID,163.67,VALID,0,VALID,24.307,VALID,344,VALID,0.809375,
2010-12-09, 02:11:04,VALID,1002.01,VALID,0,INVALID,163.655,VALID,0,VALID,24.3459,VALID,346,VALID,0.778125,
2010-12-09, 02:12:04,VALID,1001.96,VALID,0,INVALID,163.693,VALID,0,VALID,24.3636,VALID,10,VALID,0.721094,
2010-12-09, 02:13:04,VALID,1001.93,VALID,0,INVALID,163.678,VALID,0,VALID,24.4043,VALID,349,VALID,0.525781,
2010-12-09, 02:14:04,VALID,1001.89,VALID,0,INVALID,163.662,VALID,0,VALID,24.4238,VALID,349,VALID,0.244531,
2010-12-09, 02:15:04,VALID,1001.9,VALID,0,INVALID,163.662,VALID,0,VALID,24.4238,VALID,349,VALID,0,
2010-12-09, 02:16:04,VALID,1001.87,VALID,0,INVALID,163.662,VALID,0,VALID,24.4238,VALID,349,VALID,0,
2010-12-09, 02:17:04,VALID,1001.87,VALID,0,INVALID,163.67,VALID,0,VALID,24.4043,VALID,349,VALID,0.000390625,
2010-12-09, 02:18:04,VALID,1001.85,VALID,0,INVALID,163.67,VALID,0,VALID,24.4043,VALID,349,VALID,0,
2010-12-09, 02:19:04,VALID,1001.81,VALID,0,INVALID,163.701,VALID,0,VALID,24.4043,VALID,359,VALID,0.805859,
2010-12-09, 02:20:04,VALID,1001.81,VALID,0,INVALID,163.678,VALID,0,VALID,24.4043,VALID,355,VALID,0.634375,
2010-12-09, 02:21:04,VALID,1001.76,VALID,0,INVALID,163.678,VALID,0,VALID,24.4433,VALID,353,VALID,0.694922,
2010-12-09, 02:22:04,VALID,1001.78,VALID,0,INVALID,163.655,VALID,0,VALID,24.4628,VALID,347,VALID,0.486719,
2010-12-09, 02:23:04,VALID,1001.74,VALID,0,INVALID,163.685,VALID,0,VALID,24.5017,VALID,331,VALID,0.571875,
2010-12-09, 02:24:04,VALID,1001.68,VALID,0,INVALID,163.639,VALID,0,VALID,24.5212,VALID,349,VALID,0.676172,
2010-12-09, 02:25:04,VALID,1001.67,VALID,0,INVALID,163.639,VALID,0,VALID,24.4414,VALID,348,VALID,0.602734,
2010-12-09, 02:26:04,VALID,1001.62,VALID,0,INVALID,163.662,VALID,0,VALID,24.4043,VALID,348,VALID,0.728516,
2010-12-09, 02:27:04,VALID,1001.61,VALID,0,INVALID,163.685,VALID,0,VALID,24.3636,VALID,351,VALID,0.662891,
2010-12-09, 02:28:04,VALID,1001.58,VALID,0,INVALID,163.67,VALID,0,VALID,24.3265,VALID,352,VALID,0.596875,
2010-12-09, 02:29:04,VALID,1001.57,VALID,0,INVALID,163.67,VALID,0,VALID,24.3265,VALID,353,VALID,0.760547,
2010-12-09, 02:30:04,VALID,1001.59,VALID,0,INVALID,163.701,VALID,0,VALID,24.2875,VALID,356,VALID,0.614453,
2010-12-09, 02:31:04,VALID,1001.58,VALID,0,INVALID,163.67,VALID,0,VALID,24.2681,VALID,356,VALID,0.476953,
2010-12-09, 02:32:04,VALID,1001.63,VALID,0,INVALID,163.716,VALID,0,VALID,24.2486,VALID,344,VALID,0.598828,
2010-12-09, 02:33:04,VALID,1001.6,VALID,0,INVALID,163.693,VALID,0,VALID,24.2291,VALID,320,VALID,0.633984,
2010-12-09, 02:34:04,VALID,1001.58,VALID,0,INVALID,163.685,VALID,0,VALID,24.2468,VALID,287,VALID,0.18125,
2010-12-09, 02:35:04,VALID,1001.58,VALID,0,INVALID,163.662,VALID,0,VALID,24.307,VALID,355,VALID,0.978906,
2010-12-09, 02:36:04,VALID,1001.58,VALID,0,INVALID,163.662,VALID,0,VALID,24.4043,VALID,360,VALID,0.909766,
2010-12-09, 02:37:04,VALID,1001.58,VALID,0,INVALID,163.678,VALID,0,VALID,24.4628,VALID,346,VALID,0.692187,
2010-12-09, 02:38:04,VALID,1001.57,VALID,0,INVALID,163.655,VALID,0,VALID,24.4804,VALID,347,VALID,0.792188,
2010-12-09, 02:39:04,VALID,1001.57,VALID,0,INVALID,163.655,VALID,0,VALID,24.4998,VALID,353,VALID,0.616016,
2010-12-09, 02:40:04,VALID,1001.55,VALID,0,INVALID,163.67,VALID,0,VALID,24.5212,VALID,359,VALID,0.791797,
2010-12-09, 02:41:04,VALID,1001.54,VALID,0,INVALID,163.678,VALID,0,VALID,24.5212,VALID,342,VALID,0.603516,
2010-12-09, 02:42:04,VALID,1001.51,VALID,0,INVALID,163.662,VALID,0,VALID,24.5212,VALID,333,VALID,0.524609,
2010-12-09, 02:43:04,VALID,1001.54,VALID,0,INVALID,163.655,VALID,0,VALID,24.5193,VALID,350,VALID,0.638281,
2010-12-09, 02:44:04,VALID,1001.53,VALID,0,INVALID,163.655,VALID,0,VALID,24.5601,VALID,333,VALID,0.355859,
2010-12-09, 02:45:04,VALID,1001.52,VALID,0,INVALID,163.662,VALID,0,VALID,24.5582,VALID,333,VALID,0.0222656,
2010-12-09, 02:46:04,VALID,1001.52,VALID,0,INVALID,163.67,VALID,0,VALID,24.5796,VALID,333,VALID,0,
2010-12-09, 02:47:04,VALID,1001.5,VALID,0,INVALID,163.639,VALID,0,VALID,24.5777,VALID,344,VALID,0.524219,
2010-12-09, 02:48:04,VALID,1001.5,VALID,0,INVALID,163.647,VALID,0,VALID,24.5972,VALID,352,VALID,0.253125,
2010-12-09, 02:49:04,VALID,1001.48,VALID,0,INVALID,163.655,VALID,0,VALID,24.6574,VALID,281,VALID,0.170703,
2010-12-09, 02:50:04,VALID,1001.46,VALID,0,INVALID,163.67,VALID,0,VALID,24.638,VALID,352,VALID,0.428906,
2010-12-09, 02:51:04,VALID,1001.4,VALID,0,INVALID,163.647,VALID,0,VALID,24.6593,VALID,357,VALID,1.07461,
2010-12-09, 02:52:04,VALID,1001.37,VALID,0,INVALID,163.624,VALID,0,VALID,24.6556,VALID,350,VALID,0.838281,
2010-12-09, 02:53:04,VALID,1001.4,VALID,0,INVALID,163.624,VALID,0,VALID,24.6945,VALID,353,VALID,0.624219,
2010-12-09, 02:54:04,VALID,1001.42,VALID,0,INVALID,163.617,VALID,0,VALID,24.6945,VALID,347,VALID,0.8125,
2010-12-09, 02:55:04,VALID,1001.41,VALID,0,INVALID,163.601,VALID,0,VALID,24.7159,VALID,351,VALID,0.816406,
2010-12-09, 02:56:04,VALID,1001.41,VALID,0,INVALID,163.662,VALID,0,VALID,24.6964,VALID,349,VALID,0.721094,
2010-12-09, 02:57:04,VALID,1001.42,VALID,0,INVALID,163.632,VALID,0,VALID,24.6769,VALID,339,VALID,0.608203,
2010-12-09, 02:58:04,VALID,1001.39,VALID,0,INVALID,163.632,VALID,0,VALID,24.6964,VALID,349,VALID,0.614062,
2010-12-09, 02:59:04,VALID,1001.38,VALID,0,INVALID,163.67,VALID,0,VALID,24.675,VALID,348,VALID,1.03281,
2010-12-09, 03:00:04,VALID,1001.37,VALID,0,INVALID,163.639,VALID,0,VALID,24.714,VALID,341,VALID,0.602734,
2010-12-09, 03:01:04,VALID,1001.38,VALID,0,INVALID,163.655,VALID,0.100563,VALID,24.7335,VALID,342,VALID,0.515234,
2010-12-09, 03:02:04,VALID,1001.35,VALID,0,INVALID,163.655,VALID,0.100563,VALID,24.7529,VALID,340,VALID,0.360938,
2010-12-09, 03:03:04,VALID,1001.35,VALID,0,INVALID,163.647,VALID,0.100563,VALID,24.7353,VALID,340,VALID,0.108984,
2010-12-09, 03:04:04,VALID,1001.38,VALID,0,INVALID,163.662,VALID,0.100563,VALID,24.714,VALID,345,VALID,0.596484,
2010-12-09, 03:05:04,VALID,1001.36,VALID,0,INVALID,163.639,VALID,0,VALID,24.714,VALID,351,VALID,0.807031,
2010-12-09, 03:06:04,VALID,1001.39,VALID,0,INVALID,163.647,VALID,0,VALID,24.7335,VALID,357,VALID,0.69375,
2010-12-09, 03:07:04,VALID,1001.37,VALID,0,INVALID,163.647,VALID,0,VALID,24.7548,VALID,353,VALID,0.373828,
2010-12-09, 03:08:04,VALID,1001.38,VALID,0,INVALID,163.678,VALID,0,VALID,24.7353,VALID,342,VALID,0.6375,
2010-12-09, 03:09:04,VALID,1001.36,VALID,0,INVALID,163.655,VALID,0,VALID,24.7529,VALID,342,VALID,0.475781,
2010-12-09, 03:10:04,VALID,1001.35,VALID,0,INVALID,163.609,VALID,0,VALID,24.7529,VALID,345,VALID,0.686719,
2010-12-09, 03:11:04,VALID,1001.33,VALID,0,INVALID,163.647,VALID,0,VALID,24.7724,VALID,339,VALID,0.66875,
2010-12-09, 03:12:04,VALID,1001.3,VALID,0,INVALID,163.639,VALID,0,VALID,24.7919,VALID,351,VALID,0.391016,
2010-12-09, 03:13:04,VALID,1001.3,VALID,0,INVALID,163.639,VALID,0,VALID,24.8132,VALID,351,VALID,0.446484,
2010-12-09, 03:14:04,VALID,1001.29,VALID,0,INVALID,163.632,VALID,0,VALID,24.7919,VALID,344,VALID,0.467969,
2010-12-09, 03:15:04,VALID,1001.28,VALID,0,INVALID,163.632,VALID,0,VALID,24.8327,VALID,345,VALID,0.653516,
2010-12-09, 03:16:04,VALID,1001.24,VALID,0,INVALID,163.632,VALID,0,VALID,24.8327,VALID,349,VALID,0.859766,
2010-12-09, 03:17:04,VALID,1001.25,VALID,0,INVALID,163.609,VALID,0,VALID,24.8716,VALID,348,VALID,0.301562,
2010-12-09, 03:18:04,VALID,1001.27,VALID,0,INVALID,163.647,VALID,0,VALID,24.8716,VALID,8,VALID,0.567969,
2010-12-09, 03:19:04,VALID,1001.22,VALID,0,INVALID,163.624,VALID,0,VALID,24.8503,VALID,341,VALID,0.420312,
2010-12-09, 03:20:04,VALID,1001.22,VALID,0,INVALID,163.632,VALID,0,VALID,24.8911,VALID,338,VALID,0.233594,
2010-12-09, 03:21:04,VALID,1001.25,VALID,0,INVALID,163.647,VALID,0,VALID,24.8911,VALID,338,VALID,0.225,
2010-12-09, 03:22:04,VALID,1001.26,VALID,0,INVALID,163.624,VALID,0,VALID,24.8503,VALID,11,VALID,0.417578,
2010-12-09, 03:23:04,VALID,1001.24,VALID,0,INVALID,163.632,VALID,0,VALID,24.8716,VALID,359,VALID,0.632813,
2010-12-09, 03:24:04,VALID,1001.26,VALID,0,INVALID,163.647,VALID,0,VALID,24.8716,VALID,350,VALID,0.79375,
2010-12-09, 03:25:04,VALID,1001.29,VALID,0,INVALID,163.67,VALID,0,VALID,24.8503,VALID,348,VALID,0.733984,
2010-12-09, 03:26:04,VALID,1001.26,VALID,0,INVALID,163.639,VALID,0,VALID,24.8522,VALID,330,VALID,0.683984,
2010-12-09, 03:27:04,VALID,1001.26,VALID,0,INVALID,163.647,VALID,0,VALID,24.8716,VALID,349,VALID,0.761328,
2010-12-09, 03:28:04,VALID,1001.29,VALID,0,INVALID,163.655,VALID,0,VALID,24.8697,VALID,359,VALID,0.675,
2010-12-09, 03:29:04,VALID,1001.29,VALID,0,INVALID,163.647,VALID,0,VALID,24.8697,VALID,353,VALID,1.02305,
2010-12-09, 03:30:04,VALID,1001.29,VALID,0,INVALID,163.655,VALID,0,VALID,24.8911,VALID,4,VALID,0.676172,
2010-12-09, 03:31:04,VALID,1001.28,VALID,0,INVALID,163.609,VALID,0,VALID,24.8892,VALID,351,VALID,1.4043,
2010-12-09, 03:32:04,VALID,1001.29,VALID,0,INVALID,163.601,VALID,0,VALID,24.9087,VALID,349,VALID,0.818359,
2010-12-09, 03:33:04,VALID,1001.29,VALID,0,INVALID,163.624,VALID,0,VALID,24.9282,VALID,354,VALID,1.23828,
2010-12-09, 03:34:04,VALID,1001.27,VALID,0,INVALID,163.601,VALID,0,VALID,24.9495,VALID,352,VALID,1.16602,
2010-12-09, 03:35:04,VALID,1001.26,VALID,0,INVALID,163.578,VALID,0,VALID,24.9476,VALID,344,VALID,1.02383,
2010-12-09, 03:36:04,VALID,1001.23,VALID,0,INVALID,162.449,VALID,0,VALID,24.9476,VALID,346,VALID,0.838672,
2010-12-09, 03:37:04,VALID,1001.23,VALID,0,INVALID,162.877,VALID,0,VALID,24.9476,VALID,352,VALID,1.38555,
2010-12-09, 03:38:04,VALID,1001.2,VALID,0,INVALID,163.067,VALID,0.100563,VALID,24.9671,VALID,349,VALID,0.579297,
2010-12-09, 03:39:04,VALID,1001.18,VALID,0,INVALID,160.893,VALID,0.100563,VALID,24.9476,VALID,349,VALID,1.12422,
2010-12-09, 03:40:04,VALID,1001.21,VALID,0,INVALID,160.992,VALID,0,VALID,24.9671,VALID,336,VALID,1.04219,